Tracking 19570 objects as of 22-Feb-2019
HD Live streaming from Space Station
objects crossing your sky now

COSMOS 1174

Track COSMOS 1174 now!
10-day predictions
COSMOS 1174 is classified as:


NORAD ID: 11765
Int'l Code: 1980-030A
Perigee: 370.0 km
Apogee: 1,166.2 km
Inclination: 66.1 °
Period: 100.1 minutes
Semi major axis: 7139 km
RCS: 4.5129 m2 (large)
Launch date: April 18, 1980
Source: Commonwealth of Independent States (former USSR) (CIS)
Launch site: TYURATAM MISSILE AND SPACE COMPLEX (TTMTR)
aabbcc
Your satellite tracking list
Your tracking list is empty




NASA's NSSDC Master Catalog

Two Line Element Set (TLE):
1 11765U 80030A   19052.89723091  .00000728  00000-0  43777-4 0  9996
2 11765  66.0857  49.3430 0557611 299.9011  54.7801 14.39258798995265
Source of the keplerian elements: AFSPC